Weather History for KLRJ - March, 2014

Change the Weather History Date:

Monday, March 31, 2014

  Actual Average Record
Temperature  
Mean Temperature 46 °F -  
Max Temperature 73 °F 57 °F 86 °F (1978)
Min Temperature 19 °F 31 °F 19 °F (1987)
Degree Days  
Heating Degree Days 19    
Moisture  
Dew Point 31 °F    
Average Humidity 57    
Maximum Humidity 86    
Minimum Humidity 25    
Precipitation  
Precipitation 0.00 in - - ()
Sea Level Pressure  
Sea Level Pressure 29.52 in    
Wind  
Wind Speed 18 mph (SSW)    
Max Wind Speed 31 mph    
Max Gust Speed 41 mph    
Visibility 9 miles    
Events Snow    
Averages and records for this station are not official NWS values.
T = Trace of Precipitation, MM = Missing Value Source: NWS Daily Summary

Daily Weather History Graph

Daily Weather History Graph

Search for Another Location

Airport or City:

Trip Planner

Search our weather history database for the weather conditions in past years. The results will help you decide how hot, cold, wet, or windy it might be!

Date:

Astronomy

Mar. 31, 2014 Rise Set
Actual Time 7:08 AM CDT 7:49 PM CDT
Civil Twilight 6:40 AM CDT 8:18 PM CDT
Nautical Twilight 6:06 AM CDT 8:52 PM CDT
Astronomical Twilight 5:31 AM CDT 9:27 PM CDT
Moon 7:31 AM CDT (3/31) 9:12 PM CDT (3/31)
Length of Visible Light 13h 38m
Length of Day
12h 41m
New Moon, 1% of the Moon is Illuminated
Mar 31
New Moon
Apr 7
First Quarter
Apr 15
Full
Apr 22
Last Quarter
Apr 29
New

Hourly Weather History & Observations

Time (CDT) Temp. Windchill Dew Point Humidity Pressure Visibility Wind Dir Wind Speed Gust Speed Precip Events Conditions
12:15 AM 57.2 °F - 35.6 °F 44% 29.60 in 10.0 mi SSE 15.0 mph - N/A   Clear
12:35 AM 57.2 °F - 35.6 °F 44% 29.59 in 10.0 mi SE 11.5 mph 18.4 mph N/A   Clear
12:55 AM 55.4 °F - 35.6 °F 47% 29.58 in 10.0 mi SE 9.2 mph 16.1 mph N/A   Clear
1:15 AM 55.4 °F - 35.6 °F 47% 29.57 in 10.0 mi SE 13.8 mph - N/A   Clear
1:35 AM 57.2 °F - 37.4 °F 48% 29.56 in 10.0 mi SE 12.7 mph 19.6 mph N/A   Clear
1:55 AM 57.2 °F - 37.4 °F 48% 29.55 in 10.0 mi SE 15.0 mph - N/A   Clear
2:15 AM 57.2 °F - 37.4 °F 48% 29.55 in 10.0 mi SE 13.8 mph - N/A   Clear
2:35 AM 57.2 °F - 37.4 °F 48% 29.53 in 10.0 mi SSE 12.7 mph 18.4 mph N/A   Clear
2:55 AM 57.2 °F - 37.4 °F 48% 29.52 in 10.0 mi SSE 16.1 mph 23.0 mph N/A   Clear
3:15 AM 59.0 °F - 37.4 °F 45% 29.51 in 10.0 mi SSE 12.7 mph 23.0 mph N/A   Partly Cloudy
3:35 AM 57.2 °F - 37.4 °F 48% 29.50 in 10.0 mi SSE 15.0 mph 21.9 mph N/A   Partly Cloudy
3:55 AM 57.2 °F - 37.4 °F 48% 29.48 in 10.0 mi SE 11.5 mph 20.7 mph N/A   Scattered Clouds
4:15 AM 59.0 °F - 37.4 °F 45% 29.48 in 10.0 mi SSE 17.3 mph - N/A   Scattered Clouds
4:35 AM 59.0 °F - 37.4 °F 45% 29.48 in 10.0 mi SSE 13.8 mph - N/A   Partly Cloudy
4:55 AM 57.2 °F - 37.4 °F 48% 29.48 in 10.0 mi SSE 12.7 mph - N/A   Scattered Clouds
5:15 AM 57.2 °F - 37.4 °F 48% 29.46 in 10.0 mi SE 13.8 mph - N/A   Scattered Clouds
5:35 AM 57.2 °F - 39.2 °F 51% 29.46 in 10.0 mi SE 13.8 mph 25.3 mph N/A   Clear
5:55 AM 57.2 °F - 39.2 °F 51% 29.46 in 10.0 mi SE 20.7 mph - N/A   Clear
6:15 AM 55.4 °F - 39.2 °F 54% 29.46 in 10.0 mi SE 11.5 mph 21.9 mph N/A   Clear
6:35 AM 57.2 °F - 39.2 °F 51% 29.44 in - SE 19.6 mph 26.5 mph N/A   Partly Cloudy
6:55 AM 55.4 °F - 39.2 °F 54% 29.42 in 10.0 mi SE 16.1 mph 24.2 mph N/A   Clear
7:15 AM 55.4 °F - 39.2 °F 54% 29.43 in 10.0 mi SE 13.8 mph 21.9 mph N/A   Clear
7:35 AM 55.4 °F - 39.2 °F 54% 29.42 in 10.0 mi ESE 11.5 mph 23.0 mph N/A   Clear
7:55 AM 55.4 °F - 41.0 °F 58% 29.41 in 10.0 mi SE 13.8 mph 20.7 mph N/A   Clear
8:15 AM 53.6 °F - 41.0 °F 62% 29.41 in 10.0 mi ESE 13.8 mph 19.6 mph N/A   Clear
8:35 AM 53.6 °F - 41.0 °F 62% 29.39 in 10.0 mi ESE 16.1 mph 24.2 mph N/A   Clear
8:55 AM 57.2 °F - 41.0 °F 55% 29.39 in 10.0 mi SE 17.3 mph 26.5 mph N/A   Clear
9:15 AM 59.0 °F - 41.0 °F 51% 29.38 in 10.0 mi SE 21.9 mph 29.9 mph N/A   Clear
9:35 AM 60.8 °F - 41.0 °F 48% 29.38 in 10.0 mi SE 19.6 mph 29.9 mph N/A   Clear
9:55 AM 60.8 °F - 41.0 °F 48% 29.37 in 10.0 mi SE 19.6 mph 28.8 mph N/A   Clear
10:10 AM 62.6 °F - 41.0 °F 45% 29.35 in 10.0 mi SSE 21.9 mph 31.1 mph N/A   Clear
10:35 AM 64.4 °F - 42.8 °F 45% 29.35 in 10.0 mi SSE 24.2 mph 33.4 mph N/A   Clear
10:55 AM 66.2 °F - 42.8 °F 43% 29.34 in 10.0 mi SSE 26.5 mph 38.0 mph N/A   Clear
11:15 AM 68.0 °F - 42.8 °F 40% 29.34 in 10.0 mi SSE 21.9 mph 38.0 mph N/A   Clear
11:35 AM 69.8 °F - 42.8 °F 38% 29.31 in 10.0 mi SSE 26.5 mph 39.1 mph N/A   Clear
11:55 AM 71.6 °F - 41.0 °F 33% 29.30 in 10.0 mi South 25.3 mph 38.0 mph N/A   Clear
12:15 PM 73.4 °F - 39.2 °F 29% 29.29 in 10.0 mi South 24.2 mph 32.2 mph N/A   Clear
12:35 PM 73.4 °F - 35.6 °F 25% 29.29 in 9.0 mi SSW 25.3 mph 34.5 mph N/A   Clear
12:55 PM 68.0 °F - 37.4 °F 33% 29.31 in 9.0 mi SW 29.9 mph 39.1 mph N/A   Clear
1:15 PM 64.4 °F - 37.4 °F 37% 29.33 in 9.0 mi SW 28.8 mph 35.7 mph N/A   Clear
1:35 PM 59.0 °F - 37.4 °F 45% 29.36 in 9.0 mi SW 27.6 mph 35.7 mph N/A   Clear
1:55 PM 55.4 °F - 35.6 °F 47% 29.37 in 10.0 mi WSW 23.0 mph 36.8 mph N/A   Clear
2:15 PM 53.6 °F - 35.6 °F 51% 29.39 in 10.0 mi WSW 26.5 mph 36.8 mph N/A   Clear
2:35 PM 51.8 °F - 33.8 °F 50% 29.40 in 10.0 mi SW 31.1 mph 36.8 mph N/A   Clear
2:55 PM 46.4 °F 37.4 °F 32.0 °F 57% 29.43 in 9.0 mi WSW 28.8 mph 39.1 mph N/A   Partly Cloudy
3:15 PM 42.8 °F 33.5 °F 32.0 °F 66% 29.46 in 9.0 mi WSW 23.0 mph 33.4 mph N/A   Mostly Cloudy
3:35 PM 41.0 °F 30.7 °F 32.0 °F 70% 29.47 in 10.0 mi WSW 25.3 mph 33.4 mph N/A   Overcast
3:55 PM 37.4 °F 25.6 °F 30.2 °F 75% 29.48 in 10.0 mi WSW 26.5 mph 36.8 mph N/A   Overcast
4:15 PM 35.6 °F 24.0 °F 28.4 °F 75% 29.50 in 9.0 mi WSW 23.0 mph 32.2 mph N/A   Overcast
4:35 PM 35.6 °F 24.0 °F 28.4 °F 75% 29.52 in 10.0 mi West 23.0 mph 33.4 mph N/A   Overcast
4:55 PM 33.8 °F 21.0 °F 24.8 °F 70% 29.53 in 10.0 mi WSW 25.3 mph 40.3 mph N/A   Overcast
5:15 PM 32.0 °F 18.9 °F 23.0 °F 69% 29.54 in - West 24.2 mph 32.2 mph N/A   Overcast
5:35 PM 30.2 °F 17.1 °F 21.2 °F 69% 29.56 in 10.0 mi WSW 21.9 mph 34.5 mph N/A   Overcast
5:55 PM 28.4 °F 15.4 °F 21.2 °F 74% 29.57 in 10.0 mi West 19.6 mph 33.4 mph N/A   Overcast
6:15 PM 28.4 °F 14.4 °F 21.2 °F 74% 29.60 in 9.0 mi West 23.0 mph 41.4 mph N/A   Overcast
6:35 PM 26.6 °F 12.7 °F 21.2 °F 80% 29.62 in 5.0 mi WSW 20.7 mph 31.1 mph N/A   Haze
6:55 PM 26.6 °F 12.7 °F 21.2 °F 80% 29.63 in 4.0 mi West 20.7 mph 31.1 mph N/A   Overcast
7:15 PM 24.8 °F 10.7 °F 21.2 °F 86% 29.65 in 5.0 mi West 19.6 mph 28.8 mph N/A   Overcast
7:35 PM 24.8 °F 10.3 °F 21.2 °F 86% 29.66 in 3.0 mi West 20.7 mph 32.2 mph N/A   Overcast
7:55 PM 24.8 °F 10.0 °F 17.6 °F 74% 29.67 in 9.0 mi West 21.9 mph 39.1 mph N/A   Overcast
8:15 PM 24.8 °F 10.3 °F 17.6 °F 74% 29.69 in 6.0 mi West 20.7 mph 34.5 mph N/A   Haze
8:35 PM 24.8 °F 9.3 °F 17.6 °F 74% 29.69 in 10.0 mi West 24.2 mph 40.3 mph N/A   Overcast
8:55 PM 23.0 °F 8.3 °F 17.6 °F 80% 29.72 in 4.0 mi West 19.6 mph 35.7 mph N/A Snow Light Snow
9:15 PM 23.0 °F 8.7 °F 15.8 °F 74% 29.74 in 8.0 mi WNW 18.4 mph 33.4 mph N/A   Mostly Cloudy
9:35 PM 21.2 °F 4.2 °F 14.0 °F 74% 29.76 in 8.0 mi WNW 25.3 mph 41.4 mph N/A   Overcast
9:55 PM 21.2 °F 4.9 °F 14.0 °F 74% 29.77 in 10.0 mi WNW 23.0 mph 38.0 mph N/A   Overcast
10:15 PM 21.2 °F 3.9 °F 14.0 °F 74% 29.78 in 9.0 mi NW 26.5 mph 38.0 mph N/A   Overcast
10:35 PM 19.4 °F 2.5 °F 14.0 °F 80% 29.80 in 4.0 mi WNW 23.0 mph 34.5 mph N/A Snow Light Snow
10:55 PM 21.2 °F 4.9 °F 12.2 °F 68% 29.81 in 10.0 mi WNW 23.0 mph 38.0 mph N/A   Overcast
11:15 PM 21.2 °F 4.9 °F 12.2 °F 68% 29.82 in 10.0 mi NW 23.0 mph 38.0 mph N/A   Overcast
11:35 PM 19.4 °F 1.8 °F 12.2 °F 74% 29.84 in 8.0 mi NW 25.3 mph 41.4 mph N/A Snow Light Snow
11:55 PM 19.4 °F 1.1 °F 12.2 °F 74% 29.84 in 8.0 mi NW 27.6 mph 40.3 mph N/A Snow Light Snow